Location: Coll
(42.4728°N, 0.7714°E)
Time: 06:49:42
(UTC+00:00)

Cosmos 1606 Rocket - Pass Details

Date: 23 October 2020
Orbit: 604 x 631 km, 82.5° (Epoch: 23 November)

Event Time Altitude Azimuth Distance (km) Brightness Sun altitude
Rises 05:03:22 0° 354° (N) 2,925 6.9 -14.7°
Reaches altitude 10° 05:05:38 10° 357° (N) 2,016 6.1 -14.3°
Maximum altitude 05:10:05 69° 81° (E) 676 3.9 -13.5°
Drops below altitude 10° 05:14:32 10° 165° (SSE) 2,006 6.4 -12.7°
Sets 05:16:46 0° 168° (SSE) 2,908 7.2 -12.3°
